| time (UTC) | temp C | wind direction | speed KPH | gust KPH | rain 1hr cm | rain 24hr cm | rain mn cm | humidity % | barometer mb |
| 20260507105544 | 12 | 137 | 9.7 | 17.7 | 0.00 | 0.00 | 0.00 | 87 | 1018.1 |
| 20260507104524 | 12 | 128 | 9.7 | 17.7 | 0.00 | 0.00 | 0.00 | 87 | 1018.1 |
| 20260507103524 | 12 | 130 | 11.3 | 27.4 | 0.00 | 0.00 | 0.00 | 87 | 1018.2 |
| 20260507102544 | 12 | 177 | 8.0 | 17.7 | 0.00 | 0.00 | 0.00 | 87 | 1018.2 |
| 20260507101545 | 12 | 133 | 9.7 | 17.7 | 0.00 | 0.00 | 0.00 | 87 | 1018.2 |
| 20260507100557 | 12 | 179 | 8.0 | 17.7 | 0.00 | 0.00 | 0.00 | 87 | 1018.2 |
| 20260507095524 | 12 | 155 | 8.0 | 14.5 | 0.00 | 0.00 | 0.00 | 88 | 1018.2 |
| 20260507094524 | 12 | 138 | 9.7 | 17.7 | 0.00 | 0.00 | 0.00 | 88 | 1018.2 |
| 20260507093525 | 12 | 150 | 6.4 | 17.7 | 0.00 | 0.00 | 0.00 | 87 | 1018.2 |
| 20260507092524 | 12 | 160 | 8.0 | 17.7 | 0.00 | 0.00 | 0.00 | 88 | 1018.1 |
| 20260507091524 | 12 | 121 | 9.7 | 14.5 | 0.00 | 0.00 | 0.00 | 89 | 1018.0 |
| 20260507090524 | 12 | 157 | 8.0 | 17.7 | 0.00 | 0.00 | 0.00 | 88 | 1018.1 |
| 20260507085544 | 12 | 135 | 6.4 | 14.5 | 0.00 | 0.00 | 0.00 | 87 | 1018.2 |
| 20260507084524 | 12 | 172 | 8.0 | 14.5 | 0.00 | 0.00 | 0.00 | 88 | 1018.1 |
| 20260507083544 | 12 | 190 | 6.4 | 17.7 | 0.00 | 0.00 | 0.00 | 87 | 1018.1 |
| 20260507082536 | 12 | 167 | 6.4 | 14.5 | 0.00 | 0.00 | 0.00 | 86 | 1018.0 |
| 20260507081537 | 12 | 186 | 8.0 | 14.5 | 0.00 | 0.00 | 0.00 | 86 | 1017.9 |
| 20260507080524 | 11 | 138 | 9.7 | 17.7 | 0.00 | 0.00 | 0.00 | 89 | 1018.0 |
| 20260507075609 | 12 | 145 | 8.0 | 14.5 | 0.00 | 0.00 | 0.00 | 87 | 1018.0 |
| 20260507074524 | 12 | 191 | 8.0 | 14.5 | 0.00 | 0.00 | 0.00 | 87 | 1018.0 |
| 20260507073524 | 12 | 148 | 8.0 | 14.5 | 0.00 | 0.00 | 0.00 | 88 | 1018.0 |
| 20260507072524 | 12 | 187 | 8.0 | 14.5 | 0.00 | 0.00 | 0.00 | 87 | 1018.0 |
| 20260507071524 | 12 | 153 | 8.0 | 17.7 | 0.00 | 0.00 | 0.00 | 89 | 1017.9 |
| 20260507070544 | 12 | 146 | 8.0 | 17.7 | 0.00 | 0.00 | 0.00 | 88 | 1018.0 |
| 20260507065524 | 12 | 194 | 6.4 | 14.5 | 0.00 | 0.00 | 0.00 | 89 | 1018.0 |
| 20260507064525 | 12 | 180 | 8.0 | 14.5 | 0.00 | 0.00 | 0.00 | 88 | 1018.0 |
| 20260507063536 | 12 | 191 | 8.0 | 17.7 | 0.00 | 0.00 | 0.00 | 86 | 1018.0 |
| 20260507062536 | 12 | 194 | 8.0 | 14.5 | 0.00 | 0.00 | 0.00 | 86 | 1018.0 |
| 20260507061545 | 12 | 181 | 6.4 | 14.5 | 0.00 | 0.00 | 0.00 | 85 | 1017.9 |
| 20260507060536 | 12 | 197 | 8.0 | 14.5 | 0.00 | 0.00 | 0.00 | 86 | 1017.8 |
| 20260507055525 | 12 | 186 | 8.0 | 14.5 | 0.00 | 0.00 | 0.00 | 86 | 1017.7 |
| 20260507054525 | 12 | 202 | 8.0 | 14.5 | 0.00 | 0.00 | 0.00 | 86 | 1017.6 |
| 20260507053556 | 12 | 180 | 6.4 | 14.5 | 0.00 | 0.00 | 0.00 | 86 | 1017.6 |
| 20260507052544 | 12 | 202 | 8.0 | 17.7 | 0.00 | 0.00 | 0.00 | 85 | 1017.5 |
| 20260507051537 | 12 | 187 | 6.4 | 14.5 | 0.00 | 0.00 | 0.00 | 88 | 1017.4 |
| 20260507050616 | 12 | 183 | 6.4 | 11.3 | 0.00 | 0.00 | 0.00 | 87 | 1017.4 |
| 20260507045525 | 11 | 197 | 6.4 | 14.5 | 0.00 | 0.00 | 0.00 | 88 | 1017.4 |
| 20260507044524 | 11 | 180 | 6.4 | 14.5 | 0.00 | 0.00 | 0.00 | 89 | 1017.2 |
| 20260507043524 | 11 | 192 | 4.8 | 11.3 | 0.00 | 0.00 | 0.00 | 91 | 1017.1 |
| 20260507042544 | 10 | 157 | 6.4 | 11.3 | 0.00 | 0.00 | 0.00 | 91 | 1017.1 |
| 20260507041645 | 10 | 192 | 6.4 | 11.3 | 0.00 | 0.00 | 0.00 | 91 | 1016.9 |
| 20260507040524 | 10 | 193 | 6.4 | 14.5 | 0.00 | 0.00 | 0.00 | 92 | 1016.9 |
| 20260507035536 | 10 | 157 | 4.8 | 11.3 | 0.00 | 0.00 | 0.00 | 92 | 1017.0 |
| 20260507034524 | 10 | 192 | 4.8 | 11.3 | 0.00 | 0.00 | 0.00 | 92 | 1017.0 |
| 20260507033524 | 10 | 190 | 4.8 | 11.3 | 0.00 | 0.00 | 0.00 | 92 | 1016.8 |
| 20260507032524 | 10 | 192 | 6.4 | 14.5 | 0.00 | 0.00 | 0.00 | 93 | 1016.8 |
| 20260507031524 | 10 | 187 | 6.4 | 11.3 | 0.00 | 0.00 | 0.00 | 93 | 1016.7 |
| 20260507030524 | 10 | 189 | 6.4 | 14.5 | 0.00 | 0.00 | 0.00 | 94 | 1016.7 |
| 20260507025524 | 10 | 195 | 4.8 | 11.3 | 0.00 | 0.00 | 0.00 | 95 | 1016.7 |
| 20260507024536 | 10 | 200 | 8.0 | 11.3 | 0.00 | 0.00 | 0.00 | 95 | 1016.7 |
| 20260507023545 | 10 | 203 | 6.4 | 14.5 | 0.00 | 0.00 | 0.00 | 95 | 1016.6 |
| 20260507022525 | 10 | 167 | 4.8 | 11.3 | 0.00 | 0.00 | 0.00 | 96 | 1016.5 |
| 20260507021549 | 10 | 204 | 4.8 | 11.3 | 0.00 | 0.00 | 0.00 | 96 | 1016.5 |
| 20260507020544 | 10 | 201 | 3.2 | 11.3 | 0.00 | 0.00 | 0.00 | 96 | 1016.5 |
| 20260507015544 | 10 | 193 | 4.8 | 11.3 | 0.00 | 0.00 | 0.00 | 95 | 1016.5 |
| 20260507014524 | 10 | 196 | 3.2 | 11.3 | 0.00 | 0.00 | 0.00 | 95 | 1016.5 |
| 20260507013524 | 10 | 205 | 3.2 | 6.4 | 0.00 | 0.00 | 0.00 | 94 | 1016.3 |
| 20260507012524 | 10 | 187 | 3.2 | 11.3 | 0.00 | 0.00 | 0.00 | 94 | 1016.4 |
| 20260507011524 | 10 | 201 | 6.4 | 14.5 | 0.00 | 0.00 | 0.00 | 94 | 1016.4 |
| 20260507010536 | 10 | 183 | 8.0 | 11.3 | 0.00 | 0.00 | 0.00 | 95 | 1016.4 |
| 20260507005524 | 10 | 207 | 4.8 | 11.3 | 0.00 | 0.00 | 0.00 | 95 | 1016.3 |
| 20260507004524 | 10 | 207 | 3.2 | 11.3 | 0.00 | 0.00 | 0.00 | 95 | 1016.3 |
| 20260507003524 | 10 | 201 | 6.4 | 11.3 | 0.00 | 0.00 | 0.00 | 96 | 1016.3 |
| 20260507002524 | 10 | 176 | 3.2 | 6.4 | 0.00 | 0.00 | 0.00 | 96 | 1016.3 |
| 20260507001536 | 10 | 200 | 3.2 | 6.4 | 0.00 | 0.00 | 0.00 | 96 | 1016.3 |
| 20260507000524 | 10 | 188 | 6.4 | 11.3 | 0.00 | 0.00 | 0.00 | 95 | 1016.3 |
| 20260506235536 | 10 | 185 | 6.4 | 11.3 | 0.00 | 0.00 | 0.00 | 95 | 1016.3 |
| 20260506234524 | 10 | 188 | 3.2 | 6.4 | 0.00 | 0.00 | 0.00 | 94 | 1016.3 |
| 20260506233536 | 10 | 192 | 3.2 | 11.3 | 0.00 | 0.00 | 0.00 | 94 | 1016.4 |
| 20260506232536 | 10 | 174 | 4.8 | 11.3 | 0.00 | 0.00 | 0.00 | 93 | 1016.4 |
| 20260506231525 | 10 | 185 | 8.0 | 17.7 | 0.00 | 0.00 | 0.00 | 94 | 1016.5 |
| 20260506230524 | 10 | 202 | 8.0 | 14.5 | 0.00 | 0.00 | 0.00 | 94 | 1016.6 |
| 20260506225525 | 10 | 198 | 8.0 | 14.5 | 0.00 | 0.00 | 0.00 | 93 | 1016.6 |
| 20260506224524 | 10 | 200 | 9.7 | 14.5 | 0.00 | 0.00 | 0.00 | 93 | 1016.7 |
| 20260506223536 | 10 | 196 | 4.8 | 14.5 | 0.00 | 0.00 | 0.00 | 93 | 1016.7 |
| 20260506222525 | 10 | 192 | 8.0 | 14.5 | 0.00 | 0.00 | 0.00 | 93 | 1016.7 |
| 20260506221524 | 10 | 194 | 6.4 | 17.7 | 0.00 | 0.00 | 0.00 | 93 | 1016.8 |
| 20260506220524 | 10 | 206 | 4.8 | 6.4 | 0.00 | 0.00 | 0.00 | 93 | 1016.9 |
| 20260506215525 | 10 | 184 | 4.8 | 11.3 | 0.00 | 0.00 | 0.00 | 93 | 1016.8 |
| 20260506214545 | 10 | 162 | 3.2 | 11.3 | 0.00 | 0.00 | 0.00 | 93 | 1016.9 |
| 20260506213524 | 10 | 186 | 4.8 | 6.4 | 0.00 | 0.00 | 0.00 | 94 | 1016.8 |
| 20260506212556 | 10 | 191 | 3.2 | 6.4 | 0.00 | 0.00 | 0.00 | 94 | 1016.8 |
| 20260506211536 | 10 | 172 | 4.8 | 11.3 | 0.00 | 0.00 | 0.00 | 94 | 1016.7 |
| 20260506210525 | 10 | 173 | 6.4 | 14.5 | 0.00 | 0.00 | 0.00 | 93 | 1016.7 |
| 20260506205537 | 10 | 194 | 8.0 | 14.5 | 0.00 | 0.00 | 0.00 | 94 | 1016.7 |
| 20260506204524 | 10 | 185 | 6.4 | 14.5 | 0.00 | 0.00 | 0.00 | 94 | 1016.7 |
| 20260506203545 | 10 | 181 | 8.0 | 11.3 | 0.00 | 0.00 | 0.00 | 94 | 1016.8 |
| 20260506202525 | 10 | 194 | 6.4 | 14.5 | 0.00 | 0.00 | 0.00 | 95 | 1016.8 |
| 20260506201524 | 10 | 204 | 6.4 | 14.5 | 0.00 | 0.00 | 0.00 | 95 | 1016.7 |
| 20260506200524 | 10 | 194 | 6.4 | 11.3 | 0.00 | 0.00 | 0.00 | 95 | 1016.7 |
| 20260506195544 | 10 | 186 | 6.4 | 14.5 | 0.00 | 0.00 | 0.00 | 95 | 1016.7 |
| 20260506194524 | 10 | 201 | 4.8 | 8.0 | 0.00 | 0.00 | 0.00 | 96 | 1016.7 |
| 20260506193545 | 10 | 193 | 4.8 | 11.3 | 0.00 | 0.00 | 0.00 | 96 | 1016.6 |
| 20260506192536 | 10 | 189 | 6.4 | 11.3 | 0.00 | 0.00 | 0.00 | 96 | 1016.6 |
| 20260506191645 | 10 | 189 | 6.4 | 11.3 | 0.00 | 0.00 | 0.00 | 97 | 1016.5 |
| 20260506190536 | 10 | 190 | 4.8 | 11.3 | 0.00 | 0.00 | 0.00 | 97 | 1016.5 |
| 20260506185524 | 10 | 181 | 6.4 | 11.3 | 0.00 | 0.00 | 0.00 | 97 | 1016.4 |
| 20260506184524 | 10 | 189 | 4.8 | 11.3 | 0.00 | 0.00 | 0.00 | 97 | 1016.3 |
| 20260506183524 | 10 | 173 | 3.2 | 6.4 | 0.00 | 0.00 | 0.00 | 97 | 1016.3 |
| 20260506182524 | 10 | 179 | 4.8 | 11.3 | 0.00 | 0.00 | 0.00 | 97 | 1016.3 |
| 20260506181525 | 10 | 194 | 3.2 | 6.4 | 0.00 | 0.00 | 0.00 | 97 | 1016.2 |
| 20260506180525 | 10 | 187 | 1.6 | 6.4 | 0.00 | 0.00 | 0.00 | 97 | 1016.1 |
| 20260506175525 | 10 | 192 | 3.2 | 6.4 | 0.00 | 0.00 | 0.00 | 96 | 1016.0 |
| 20260506174525 | 10 | 189 | 3.2 | 6.4 | 0.00 | 0.00 | 0.00 | 96 | 1015.9 |
| 20260506173524 | 10 | 191 | 3.2 | 6.4 | 0.00 | 0.00 | 0.00 | 95 | 1015.8 |
| 20260506172524 | 10 | 194 | 1.6 | 6.4 | 0.00 | 0.00 | 0.00 | 95 | 1015.8 |
| 20260506171525 | 10 | 201 | 1.6 | 6.4 | 0.00 | 0.00 | 0.00 | 95 | 1015.8 |
| 20260506170545 | 10 | 185 | 3.2 | 6.4 | 0.00 | 0.00 | 0.00 | 94 | 1015.8 |
| 20260506165524 | 11 | 153 | 0.0 | 6.4 | 0.00 | 0.00 | 0.00 | 93 | 1015.8 |
| 20260506164524 | 11 | 187 | 3.2 | 6.4 | 0.00 | 0.00 | 0.00 | 92 | 1015.8 |
| 20260506163545 | 11 | 201 | 3.2 | 11.3 | 0.00 | 0.00 | 0.00 | 92 | 1015.8 |
| 20260506162524 | 11 | 241 | 1.6 | 6.4 | 0.00 | 0.00 | 0.00 | 91 | 1015.7 |
| 20260506161536 | 11 | 189 | 3.2 | 6.4 | 0.00 | 0.00 | 0.00 | 91 | 1015.9 |
| 20260506160536 | 11 | 193 | 3.2 | 11.3 | 0.00 | 0.00 | 0.00 | 90 | 1015.9 |
| 20260506155524 | 11 | 180 | 3.2 | 11.3 | 0.00 | 0.00 | 0.00 | 89 | 1015.9 |
| 20260506154525 | 11 | 204 | 3.2 | 6.4 | 0.00 | 0.00 | 0.00 | 89 | 1016.0 |
| 20260506153525 | 11 | 195 | 4.8 | 11.3 | 0.00 | 0.00 | 0.00 | 88 | 1016.0 |
| 20260506152549 | 12 | 194 | 4.8 | 11.3 | 0.00 | 0.00 | 0.00 | 88 | 1016.1 |
| 20260506151525 | 12 | 136 | 4.8 | 11.3 | 0.00 | 0.00 | 0.00 | 88 | 1016.2 |
| 20260506150524 | 12 | 178 | 4.8 | 11.3 | 0.00 | 0.00 | 0.00 | 87 | 1016.2 |
| 20260506145525 | 12 | 176 | 6.4 | 11.3 | 0.00 | 0.00 | 0.00 | 86 | 1016.2 |
| 20260506144524 | 13 | 193 | 6.4 | 11.3 | 0.00 | 0.00 | 0.00 | 83 | 1016.2 |
| 20260506143524 | 13 | 178 | 6.4 | 11.3 | 0.00 | 0.00 | 0.00 | 83 | 1016.2 |
| 20260506142549 | 12 | 139 | 4.8 | 11.3 | 0.00 | 0.00 | 0.00 | 82 | 1016.2 |
| 20260506141525 | 13 | 185 | 4.8 | 11.3 | 0.00 | 0.00 | 0.00 | 80 | 1016.2 |
| 20260506140536 | 13 | 190 | 8.0 | 17.7 | 0.00 | 0.00 | 0.00 | 80 | 1016.2 |
| 20260506135525 | 13 | 155 | 6.4 | 11.3 | 0.00 | 0.00 | 0.00 | 83 | 1016.2 |
| 20260506134536 | 13 | 204 | 6.4 | 14.5 | 0.00 | 0.00 | 0.00 | 80 | 1016.3 |
| 20260506133525 | 13 | 201 | 4.8 | 11.3 | 0.00 | 0.00 | 0.00 | 81 | 1016.3 |
| 20260506132524 | 14 | 191 | 6.4 | 11.3 | 0.00 | 0.00 | 0.00 | 76 | 1016.3 |
| 20260506131545 | 13 | 202 | 6.4 | 14.5 | 0.00 | 0.00 | 0.00 | 77 | 1016.3 |
| 20260506130525 | 12 | 145 | 8.0 | 14.5 | 0.00 | 0.00 | 0.00 | 80 | 1016.3 |
| 20260506125524 | 13 | 144 | 6.4 | 11.3 | 0.00 | 0.00 | 0.00 | 77 | 1016.4 |
| 20260506124608 | 13 | 197 | 6.4 | 11.3 | 0.00 | 0.00 | 0.00 | 78 | 1016.4 |
| 20260506123525 | 14 | 181 | 6.4 | 11.3 | 0.00 | 0.00 | 0.00 | 76 | 1016.5 |
| 20260506122525 | 13 | 156 | 11.3 | 24.1 | 0.00 | 0.00 | 0.00 | 77 | 1016.4 |
| 20260506121525 | 13 | 138 | 6.4 | 14.5 | 0.00 | 0.00 | 0.00 | 77 | 1016.6 |
| 20260506120524 | 14 | 202 | 9.7 | 24.1 | 0.00 | 0.00 | 0.00 | 74 | 1016.7 |
| 20260506115524 | 13 | 188 | 8.0 | 24.1 | 0.00 | 0.00 | 0.00 | 75 | 1016.7 |
| 20260506114525 | 13 | 141 | 9.7 | 24.1 | 0.00 | 0.00 | 0.00 | 78 | 1016.8 |
| 20260506113557 | 13 | 139 | 6.4 | 14.5 | 0.00 | 0.00 | 0.00 | 78 | 1016.8 |
| 20260506112524 | 13 | 175 | 6.4 | 11.3 | 0.00 | 0.00 | 0.00 | 76 | 1016.9 |
| 20260506111525 | 13 | 135 | 6.4 | 11.3 | 0.00 | 0.00 | 0.00 | 80 | 1016.9 |
| 20260506110524 | 13 | 214 | 6.4 | 11.3 | 0.00 | 0.00 | 0.00 | 80 | 1017.0 |